{"data":{"norad_id":60189,"intl_designator":"2024-124G","name":"STARLINK-11183 [DTC]","alt_names":[],"object_type":"PAYLOAD","status":"ACTIVE","operator":null,"country":"US","launch_date":"2024-07-03","launch_site_code":"AFETR","launch_vehicle":null,"mission":null,"orbit_class":"UNKNOWN","rcs_meters":null,"size_class":null,"mass_kg":null,"dimensions":null,"purposes":["comms"],"wikipedia_slug":null,"has_3d_model":false,"image_url":null,"decayed_at":null,"tle_current":{"epoch":"2026-05-24T17:38:53.430432Z","epoch_age_seconds":104703,"freshness":"FRESH","line1":"1 60189U 24124G   26144.73534063  .00000553  00000+0  94244-5 0  9995","line2":"2 60189  53.1592 146.6926 0001102  82.9605 277.1538 15.69714022108479","mean_motion":15.69714022,"eccentricity":0.0001102,"inclination_deg":53.1592,"raan_deg":146.6926,"arg_perigee_deg":82.9605,"mean_anomaly_deg":277.1538,"bstar":9.4244e-6,"rev_number":10847,"period_min":91.736455164315,"perigee_km":358.97272970293,"apogee_km":360.45775233686,"semimajor_km":6737.8522410199,"source":"CELESTRAK","updated_at":"2026-05-25T13:38:19.194382Z"}}}